Lulu Pass Weather Station

This weather station provides temperature, relative humidity (RH), wind speed, gust or max wind speed, and wind direction at 10014ft near Lulu Pass at the head of Fisher Creek. This data can be used with temperature and precipitation data from the Fisher Creek SNOTEL site.

This weather station was purchased by the Friends of the Avalanche Center.

If the data has not been updated recently you can view it directly on datagarrison.com

Elevation
10014ft
Jump to table bottom
Date Time Temperature
deg F
RH, % Wind Speed Wind Gust Wind Direction
11/28/22 10:00 1.8 86 1 5 W - 251
11/28/22 09:00 -0.1 87 1 6 NW - 331
11/28/22 08:00 -1.7 86 9 14 NW - 326
11/28/22 07:00 -3.6 85 12 19 NW - 314
11/28/22 06:00 -2.8 86 16 23 NW - 319
11/28/22 05:00 -0.9 86 18 23 NW - 306
11/28/22 04:00 0.2 86 18 25 NW - 298
11/28/22 03:00 0.9 87 18 30 W - 278
11/28/22 02:00 2.2 87 17 36 W - 271
11/28/22 01:00 4.4 88 20 26 NW - 303
11/28/22 00:00 6.0 88 20 27 NW - 300
11/27/22 23:00 7.6 90 21 39 SW - 232
11/27/22 22:00 10.9 90 25 50 SW - 213
11/27/22 21:00 11.2 90 26 57 SW - 211
11/27/22 20:00 11.2 90 23 48 SW - 213
11/27/22 19:00 11.2 90 22 50 SW - 211
11/27/22 18:00 11.0 90 18 37 SW - 206
11/27/22 17:00 10.7 90 22 40 S - 195
11/27/22 16:00 10.6 90 18 35 S - 195
11/27/22 15:00 10.8 90 25 48 S - 192
11/27/22 14:00 10.7 90 21 43 S - 197
11/27/22 13:00 10.8 89 24 48 S - 194
11/27/22 12:00 10.8 90 20 38 SW - 204
11/27/22 11:00 10.8 89 18 33 SW - 208
11/27/22 10:00 10.7 89 16 32 SW - 211
11/27/22 09:00 11.3 89 12 28 SW - 230
11/27/22 08:00 10.6 90 15 35 SW - 216
11/27/22 07:00 11.1 90 11 25 SW - 220
11/27/22 06:00 10.4 89 9 28 SW - 232
11/27/22 05:00 9.7 89 11 25 SW - 215
11/27/22 04:00 8.7 89 7 21 SW - 233
11/27/22 03:00 8.4 89 6 19 SW - 240
11/27/22 02:00 9.0 89 6 14 SW - 225
11/27/22 01:00 9.9 89 5 16 SW - 215
11/27/22 00:00 10.2 89 7 17 SW - 209
11/26/22 23:00 11.0 90 9 21 W - 275
11/26/22 22:00 11.2 90 6 12 W - 286
11/26/22 21:00 11.5 90 10 15 NW - 293
11/26/22 20:00 10.7 90 9 14 W - 288
11/26/22 19:00 11.0 90 10 16 W - 288
11/26/22 18:00 12.2 90 11 18 NW - 296
11/26/22 17:00 12.3 90 11 17 W - 291
11/26/22 16:00 14.3 91 11 17 NW - 298
11/26/22 15:00 16.4 92 18 24 NW - 300
11/26/22 14:00 17.2 92 16 25 NW - 298
11/26/22 13:00 18.5 92 12 19 NW - 300
11/26/22 12:00 18.3 92 9 13 W - 292
11/26/22 11:00 18.5 92 7 11 NW - 299
11/26/22 10:00 18.3 92 7 10 W - 285
11/26/22 09:00 18.1 91 5 9 W - 275